Terug naar catalogus

FENGYUN 1C DEB

ActiefSSO
NORAD 30245·DEBRIS·🇨🇳 China

Gelanceerd May 10, 1999 vanaf Taiyuan Satellite Launch Center

Loading…

Volgende Passages (komende 24 uur)

TLE

VersSource: Space-Track

Epoch: Sep 14, 2026, 09:03 UTC

1 30245U 99025XE  26257.37734417  .00000698  00000-0  62542-3 0  9992
2 30245  98.9106 233.6329 0190353 232.4852 125.8868 13.79697206984946

Volg FENGYUN 1C DEB in realtime met AllMySat

Download on the App Store